Time,TemperatureF,DewpointF,PressureIn,WindDirection,WindDirectionDegrees,WindSpeedMPH,WindSpeedGustMPH,Humidity,HourlyPrecipIn,Conditions,Clouds,dailyrainin,SolarRadiationWatts/m^2,SoftwareType,DateUTC
2013-04-01 00:07:00,41.4,28.0,30.05,NNE,28,9.0,17.0,60,0.00,,,0.01,0,weatherlink.com 1.10,2013-04-01 05:07:00,
2013-04-01 00:22:00,40.4,28.0,30.07,NE,40,11.0,18.0,61,0.00,,,0.01,0,weatherlink.com 1.10,2013-04-01 05:22:00,
2013-04-01 00:37:00,39.6,28.0,30.06,NE,53,7.0,16.0,63,0.00,,,0.01,0,weatherlink.com 1.10,2013-04-01 05:37:00,
2013-04-01 00:52:00,39.3,28.0,30.08,ENE,59,7.0,16.0,64,0.00,,,0.00,0,weatherlink.com 1.10,2013-04-01 05:52:00,
2013-04-01 01:07:00,38.3,28.0,30.08,NE,39,8.0,13.0,66,0.00,,,0.00,0,weatherlink.com 1.10,2013-04-01 06:07:00,
2013-04-01 01:22:00,37.5,27.0,30.11,ENE,59,5.0,19.0,67,0.00,,,0.00,0,weatherlink.com 1.10,2013-04-01 06:22:00,
2013-04-01 01:37:00,36.9,27.0,30.11,ENE,59,2.0,11.0,68,0.00,,,0.00,0,weatherlink.com 1.10,2013-04-01 06:37:00,
2013-04-01 01:52:00,36.3,27.0,30.12,ENE,69,4.0,8.0,70,0.00,,,0.00,0,weatherlink.com 1.10,2013-04-01 06:52:00,
2013-04-01 02:07:00,36.2,27.0,30.14,ENE,67,0.0,9.0,69,0.00,,,0.00,0,weatherlink.com 1.10,2013-04-01 07:07:00,
2013-04-01 02:22:00,35.5,27.0,30.15,ENE,67,0.0,4.0,71,0.00,,,0.00,0,weatherlink.com 1.10,2013-04-01 07:22:00,
2013-04-01 02:37:00,35.5,27.0,30.15,ENE,76,1.0,6.0,72,0.00,,,0.00,0,weatherlink.com 1.10,2013-04-01 07:37:00,
2013-04-01 02:52:00,35.6,27.0,30.16,NE,53,4.0,7.0,72,0.00,,,0.00,0,weatherlink.com 1.10,2013-04-01 07:52:00,
2013-04-01 03:07:00,35.2,28.0,30.16,ENE,71,0.0,6.0,74,0.00,,,0.00,0,weatherlink.com 1.10,2013-04-01 08:07:00,
2013-04-01 03:23:00,35.0,28.0,30.17,NE,55,3.0,5.0,75,0.00,,,0.00,0,weatherlink.com 1.10,2013-04-01 08:23:00,
2013-04-01 03:38:00,34.6,28.0,30.17,ENE,59,1.0,7.0,77,0.00,,,0.00,0,weatherlink.com 1.10,2013-04-01 08:38:00,
2013-04-01 03:53:00,34.0,28.0,30.17,ENE,67,4.0,6.0,79,0.00,,,0.00,0,weatherlink.com 1.10,2013-04-01 08:53:00,
2013-04-01 04:08:00,33.4,28.0,30.17,NNE,31,4.0,7.0,81,0.00,,,0.00,0,weatherlink.com 1.10,2013-04-01 09:08:00,
2013-04-01 04:23:00,32.9,28.0,30.18,NE,55,0.0,5.0,82,0.00,,,0.00,0,weatherlink.com 1.10,2013-04-01 09:23:00,
2013-04-01 04:38:00,32.5,28.0,30.18,ENE,57,1.0,4.0,84,0.00,,,0.00,0,weatherlink.com 1.10,2013-04-01 09:38:00,
2013-04-01 04:53:00,32.8,29.0,30.18,ENE,57,4.0,7.0,85,0.00,,,0.00,0,weatherlink.com 1.10,2013-04-01 09:53:00,
2013-04-01 05:23:00,32.3,28.0,30.18,North,5,2.0,10.0,85,0.00,,,0.00,0,weatherlink.com 1.10,2013-04-01 10:23:00,
2013-04-01 05:38:00,32.0,28.0,30.18,ENE,64,4.0,12.0,86,0.00,,,0.00,0,weatherlink.com 1.10,2013-04-01 10:38:00,
2013-04-01 05:53:00,31.9,29.0,30.19,ENE,57,9.0,13.0,87,0.00,,,0.00,0,weatherlink.com 1.10,2013-04-01 10:53:00,
2013-04-01 06:08:00,32.0,29.0,30.20,ENE,69,5.0,11.0,87,0.00,,,0.00,0,weatherlink.com 1.10,2013-04-01 11:08:00,
2013-04-01 06:23:00,32.0,29.0,30.20,ENE,62,4.0,11.0,87,0.00,,,0.00,0,weatherlink.com 1.10,2013-04-01 11:23:00,
2013-04-01 06:38:00,32.0,28.0,30.21,NE,54,5.0,9.0,86,0.00,,,0.00,0,weatherlink.com 1.10,2013-04-01 11:38:00,
2013-04-01 06:53:00,31.6,28.0,30.21,ENE,57,4.0,9.0,86,0.00,,,0.00,0,weatherlink.com 1.10,2013-04-01 11:53:00,
2013-04-01 07:08:00,31.5,28.0,30.22,NNE,26,5.0,9.0,86,0.00,,,0.00,0,weatherlink.com 1.10,2013-04-01 12:08:00,
2013-04-01 07:23:00,31.7,28.0,30.22,NE,51,0.0,7.0,86,0.00,,,0.00,0,weatherlink.com 1.10,2013-04-01 12:23:00,
2013-04-01 07:38:00,31.7,28.0,30.23,NNE,17,2.0,6.0,86,0.00,,,0.00,0,weatherlink.com 1.10,2013-04-01 12:38:00,
2013-04-01 07:53:00,31.8,28.0,30.23,ENE,69,3.0,5.0,86,0.00,,,0.00,7,weatherlink.com 1.10,2013-04-01 12:53:00,
2013-04-01 08:08:00,31.9,28.0,30.23,NE,56,0.0,5.0,86,0.00,,,0.00,18,weatherlink.com 1.10,2013-04-01 13:08:00,
2013-04-01 08:23:00,31.4,28.0,30.25,ENE,75,2.0,11.0,87,0.00,,,0.00,21,weatherlink.com 1.10,2013-04-01 13:23:00,
2013-04-01 08:38:00,31.3,28.0,30.25,East,82,8.0,8.0,87,0.00,,,0.00,23,weatherlink.com 1.10,2013-04-01 13:38:00,
2013-04-01 08:53:00,30.7,28.0,30.25,ENE,57,2.0,8.0,88,0.00,,,0.00,40,weatherlink.com 1.10,2013-04-01 13:53:00,
2013-04-01 09:08:00,30.6,28.0,30.26,ENE,74,2.0,9.0,88,0.00,,,0.00,54,weatherlink.com 1.10,2013-04-01 14:08:00,
2013-04-01 09:24:00,31.0,28.0,30.26,ENE,71,5.0,7.0,88,0.00,,,0.00,84,weatherlink.com 1.10,2013-04-01 14:24:00,
2013-04-01 09:39:00,31.3,28.0,30.26,ENE,60,0.0,8.0,87,0.00,,,0.00,113,weatherlink.com 1.10,2013-04-01 14:39:00,
2013-04-01 09:54:00,32.8,29.0,30.26,ENE,61,0.0,5.0,84,0.00,,,0.00,156,weatherlink.com 1.10,2013-04-01 14:54:00,
2013-04-01 10:09:00,33.5,28.0,30.26,NE,41,5.0,6.0,81,0.00,,,0.00,174,weatherlink.com 1.10,2013-04-01 15:09:00,
2013-04-01 10:24:00,33.7,28.0,30.26,NE,55,0.0,7.0,80,0.00,,,0.00,221,weatherlink.com 1.10,2013-04-01 15:24:00,
2013-04-01 10:39:00,33.9,28.0,30.26,East,84,6.0,9.0,79,0.00,,,0.00,267,weatherlink.com 1.10,2013-04-01 15:39:00,
2013-04-01 10:54:00,33.9,28.0,30.26,NE,44,0.0,7.0,78,0.00,,,0.00,343,weatherlink.com 1.10,2013-04-01 15:54:00,
2013-04-01 11:11:00,35.2,28.0,30.26,East,87,2.0,9.0,76,0.00,,,0.00,417,weatherlink.com 1.10,2013-04-01 16:11:00,
2013-04-01 11:24:00,36.1,28.0,30.26,ENE,67,2.0,9.0,72,0.00,,,0.00,775,weatherlink.com 1.10,2013-04-01 16:24:00,
2013-04-01 11:39:00,37.7,28.0,30.27,ENE,73,3.0,7.0,69,0.00,,,0.00,786,weatherlink.com 1.10,2013-04-01 16:39:00,
2013-04-01 11:54:00,38.4,29.0,30.27,NE,35,0.0,7.0,68,0.00,,,0.00,789,weatherlink.com 1.10,2013-04-01 16:54:00,
2013-04-01 12:09:00,38.9,27.0,30.27,East,87,2.0,9.0,62,0.00,,,0.00,775,weatherlink.com 1.10,2013-04-01 17:09:00,
2013-04-01 12:40:00,42.3,29.0,30.26,WNW,302,0.0,5.0,59,0.00,,,0.00,802,weatherlink.com 1.10,2013-04-01 17:40:00,
2013-04-01 12:55:00,43.8,28.0,30.26,ESE,114,0.0,6.0,54,0.00,,,0.00,814,weatherlink.com 1.10,2013-04-01 17:55:00,
2013-04-01 13:10:00,42.0,26.0,30.25,ENE,69,0.0,9.0,54,0.00,,,0.00,830,weatherlink.com 1.10,2013-04-01 18:10:00,
2013-04-01 13:25:00,43.1,27.0,30.25,NE,46,0.0,5.0,53,0.00,,,0.00,838,weatherlink.com 1.10,2013-04-01 18:25:00,
2013-04-01 13:40:00,44.5,28.0,30.24,ENE,65,5.0,9.0,52,0.00,,,0.00,838,weatherlink.com 1.10,2013-04-01 18:40:00,
2013-04-01 13:55:00,44.8,28.0,30.23,ENE,59,1.0,8.0,52,0.00,,,0.00,840,weatherlink.com 1.10,2013-04-01 18:55:00,
2013-04-01 14:10:00,46.1,29.0,30.22,NE,50,5.0,7.0,51,0.00,,,0.00,838,weatherlink.com 1.10,2013-04-01 19:10:00,
2013-04-01 14:25:00,46.2,28.0,30.21,ENE,61,1.0,8.0,49,0.00,,,0.00,830,weatherlink.com 1.10,2013-04-01 19:25:00,
2013-04-01 14:40:00,46.9,28.0,30.20,ESE,109,3.0,13.0,49,0.00,,,0.00,826,weatherlink.com 1.10,2013-04-01 19:40:00,
2013-04-01 14:55:00,47.8,29.0,30.20,ENE,66,5.0,8.0,48,0.00,,,0.00,810,weatherlink.com 1.10,2013-04-01 19:55:00,
2013-04-01 15:10:00,47.4,28.0,30.19,East,96,3.0,9.0,47,0.00,,,0.00,793,weatherlink.com 1.10,2013-04-01 20:10:00,
2013-04-01 15:25:00,48.2,28.0,30.18,ENE,67,9.0,14.0,46,0.00,,,0.00,749,weatherlink.com 1.10,2013-04-01 20:25:00,
2013-04-01 15:40:00,47.2,27.0,30.18,East,88,0.0,11.0,45,0.00,,,0.00,744,weatherlink.com 1.10,2013-04-01 20:40:00,
2013-04-01 15:55:00,48.3,28.0,30.18,East,82,15.0,15.0,45,0.00,,,0.00,710,weatherlink.com 1.10,2013-04-01 20:55:00,
2013-04-01 16:10:00,48.2,28.0,30.17,East,84,9.0,14.0,45,0.00,,,0.00,686,weatherlink.com 1.10,2013-04-01 21:10:00,
2013-04-01 16:25:00,48.6,27.0,30.16,ENE,70,11.0,17.0,44,0.00,,,0.00,649,weatherlink.com 1.10,2013-04-01 21:25:00,
2013-04-01 16:40:00,48.7,27.0,30.16,ENE,77,8.0,13.0,43,0.00,,,0.00,612,weatherlink.com 1.10,2013-04-01 21:40:00,
2013-04-01 16:55:00,48.9,27.0,30.16,SSE,153,5.0,14.0,43,0.00,,,0.00,571,weatherlink.com 1.10,2013-04-01 21:55:00,
2013-04-01 17:10:00,49.5,28.0,30.15,East,84,10.0,15.0,43,0.00,,,0.00,531,weatherlink.com 1.10,2013-04-01 22:10:00,
2013-04-01 17:25:00,49.2,27.0,30.15,ENE,71,3.0,13.0,42,0.00,,,0.00,487,weatherlink.com 1.10,2013-04-01 22:25:00,
2013-04-01 17:40:00,49.0,27.0,30.15,ENE,67,3.0,15.0,43,0.00,,,0.00,431,weatherlink.com 1.10,2013-04-01 22:40:00,
2013-04-01 17:55:00,49.0,27.0,30.16,East,92,7.0,13.0,43,0.00,,,0.00,388,weatherlink.com 1.10,2013-04-01 22:55:00,
2013-04-01 18:10:00,49.3,26.0,30.16,East,84,7.0,10.0,41,0.00,,,0.00,343,weatherlink.com 1.10,2013-04-01 23:10:00,
2013-04-01 18:25:00,48.8,26.0,30.16,ESE,110,1.0,14.0,42,0.00,,,0.00,287,weatherlink.com 1.10,2013-04-01 23:25:00,
2013-04-01 18:40:00,49.0,27.0,30.16,ESE,107,4.0,12.0,43,0.00,,,0.00,237,weatherlink.com 1.10,2013-04-01 23:40:00,
2013-04-01 18:55:00,48.3,27.0,30.16,ESE,119,7.0,12.0,43,0.00,,,0.00,181,weatherlink.com 1.10,2013-04-01 23:55:00,
2013-04-01 19:10:00,47.7,27.0,30.17,East,90,6.0,10.0,44,0.00,,,0.00,62,weatherlink.com 1.10,2013-04-02 00:10:00,
2013-04-01 19:25:00,46.4,26.0,30.18,East,101,2.0,7.0,46,0.00,,,0.00,44,weatherlink.com 1.10,2013-04-02 00:25:00,
2013-04-01 19:40:00,45.8,27.0,30.18,NE,56,2.0,8.0,48,0.00,,,0.00,25,weatherlink.com 1.10,2013-04-02 00:40:00,
2013-04-01 19:55:00,44.9,27.0,30.18,ESE,105,0.0,5.0,50,0.00,,,0.00,12,weatherlink.com 1.10,2013-04-02 00:55:00,
2013-04-01 20:10:00,44.1,27.0,30.19,SE,130,2.0,7.0,51,0.00,,,0.00,0,weatherlink.com 1.10,2013-04-02 01:10:00,
2013-04-01 20:25:00,43.3,27.0,30.19,ESE,112,1.0,6.0,52,0.00,,,0.00,0,weatherlink.com 1.10,2013-04-02 01:25:00,
2013-04-01 20:40:00,42.4,27.0,30.20,SE,140,2.0,6.0,54,0.00,,,0.00,0,weatherlink.com 1.10,2013-04-02 01:40:00,
2013-04-01 20:55:00,41.4,27.0,30.20,ESE,116,1.0,6.0,56,0.00,,,0.00,0,weatherlink.com 1.10,2013-04-02 01:55:00,
2013-04-01 21:10:00,40.3,26.0,30.21,East,95,0.0,7.0,58,0.00,,,0.00,0,weatherlink.com 1.10,2013-04-02 02:10:00,
2013-04-01 21:25:00,39.5,26.0,30.22,ESE,103,0.0,5.0,60,0.00,,,0.00,0,weatherlink.com 1.10,2013-04-02 02:25:00,
2013-04-01 21:40:00,38.8,27.0,30.23,SE,127,1.0,5.0,62,0.00,,,0.00,0,weatherlink.com 1.10,2013-04-02 02:40:00,
2013-04-01 21:55:00,38.3,27.0,30.23,ESE,109,3.0,6.0,63,0.00,,,0.00,0,weatherlink.com 1.10,2013-04-02 02:55:00,
2013-04-01 22:10:00,38.0,26.0,30.23,SE,128,5.0,8.0,63,0.00,,,0.00,0,weatherlink.com 1.10,2013-04-02 03:10:00,
2013-04-01 22:25:00,37.7,26.0,30.24,SE,146,0.0,7.0,64,0.00,,,0.00,0,weatherlink.com 1.10,2013-04-02 03:25:00,
2013-04-01 22:40:00,37.1,26.0,30.24,ESE,122,2.0,6.0,65,0.00,,,0.00,0,weatherlink.com 1.10,2013-04-02 03:40:00,
2013-04-01 22:55:00,36.5,26.0,30.25,SE,138,0.0,7.0,66,0.00,,,0.00,0,weatherlink.com 1.10,2013-04-02 03:55:00,
2013-04-01 23:26:00,36.9,27.0,30.26,South,170,0.0,7.0,67,0.00,,,0.00,0,weatherlink.com 1.10,2013-04-02 04:26:00,
2013-04-01 23:40:00,37.3,26.0,30.25,SE,139,9.0,10.0,65,0.00,,,0.00,0,weatherlink.com 1.10,2013-04-02 04:40:00,
2013-04-01 23:55:00,37.3,26.0,30.26,SE,133,6.0,10.0,64,0.00,,,0.00,0,weatherlink.com 1.10,2013-04-02 04:55:00,